Rbgn^[z[y[W
メイン
   新天体発見情報
     Comet C/2018 R3 (Lemmon)
投稿するにはまず登録を

フラット表示 前のトピック | 次のトピック
投稿者 スレッド
佐藤裕久
投稿日時: 2018-9-21 2:52
モデレータ
登録日: 2005-6-12
居住地: 日本
投稿: 2442
オンライン
Comet C/2018 R3 (Lemmon)

9月7日、B. M. AfricanoがMt Lemmonサーベイの1.5-m反射望遠鏡で得た画像から外見上の小惑星状
天体を発見した。
小惑星センターのPCCP webpageに公表後、佐藤英貴氏(東京都文京区, iTelescope天文台,9月8.45日
UT, 16枚のスタック,  0.43-m f/6.8 アストログラフ, Siding Spring, 遠隔操作:強い集光のある8"の
コマがある(FWHM(半値全幅)は近傍の恒星が3".6であるのに対し5".1)が尾はない。5".0の円形範囲で
測定した全光度は19.3等であった)らCCD観測者によって彗星状と観測された。

発見位置は次のとおり、

     2018 UT             R.A. (2000) Decl.       Mag.   Observer
     Sept. 7.16249   21 21 42.85   - 9 24 10.1   19.2   Africano
           7.16811   21 21 42.44   - 9 24 08.7   19.4     "
           7.17374   21 21 42.02   - 9 24 08.4   19.5     "
           7.17936   21 21 41.59   - 9 24 07.7   19.2     "
           7.32125   21 21 30.72   - 9 23 49.0   19.1     "
           7.32610   21 21 30.24   - 9 23 48.3   19.6     "
           7.33095   21 21 29.86   - 9 23 48.4   20.4     "

準放物線軌道要素と位置推算表は次のとおり、

Orbital elements:
    C/2018 R3 (Lemmon)
Epoch 2019 June 6.0 TT = JDT 2458640.5
T 2019 June 7.18212 TT                                  MPCW
q   1.2905679            (2000.0)            P               Q
z  +0.0004677      Peri.  112.87485     -0.13202501     -0.82928094
 +/-0.0002185      Node   324.62533     +0.10167933     +0.53358815
e   0.9993964      Incl.   69.71399     +0.98601760     -0.16606266
From 75 observations 2018 Aug. 8-Sept. 16, mean residual 0".4.

    C/2018 R3 (Lemmon)
Epoch 2018 Mar. 23.0 TT = JDT 2458200.5
T 2019 June 7.20415 TT                                  MPCW
q   1.2904987            (2000.0)            P               Q
z  +0.0005974      Peri.  112.88116     -0.13221157     -0.82923420
 +/-0.0002185      Node   324.62605     +0.10159897     +0.53362536
e   0.9992291      Incl.   69.72419     +0.98600089     -0.16617646
From 75 observations 2018 Aug. 8-Sept. 16, mean residual 0".4.

Ephemeris:
    C/2018 R3 (Lemmon)
Date    TT    R. A. (2000) Decl.     Delta      r     Elong.  Phase   m1
2018 08 17    21 48 56.2 -10 03 59   2.9609  3.9719   176.3     0.9  19.8
...
2018 09 01    21 29 38.0 -09 36 55   2.8454  3.8208   162.7     4.5  19.6
...
2018 09 09    21 19 23.9 -09 20 04   2.8159  3.7396   152.7     7.1  19.5
...
2018 09 15    21 12 04.5 -09 05 55   2.8074  3.6785   145.2     9.0  19.4
2018 09 16    21 10 53.9 -09 03 25   2.8070  3.6683   144.0     9.3  19.4
2018 09 17    21 09 44.0 -09 00 52   2.8069  3.6580   142.7     9.6  19.4
...
2018 09 23    21 03 04.7 -08 44 41   2.8122  3.5966   135.4    11.3  19.3
...
2018 10 01    20 55 13.2 -08 20 33   2.8327  3.5143   125.9    13.4  19.2
...
2018 10 16    20 44 13.3 -07 26 52   2.9021  3.3588   108.8    16.3  19.1

(CBET 4556、MPEC 2018-S04)


フラット表示 前のトピック | 次のトピック

題名 投稿者 日時
 » Comet C/2018 R3 (Lemmon) 佐藤裕久 2018-9-21 2:52

投稿するにはまず登録を
 
© 1999 Tsutomu Seki.